Simultaneous Nadir Overpasses (SNOs) Predictions

Prediction of SNOs between GOES-16 and NOAA-20 Satellite Orbit:

Table of predicted SNOs for the next 14.0 days since TLE Epoch: 8/14/2020
Index Date Time (GOES-16) GOES-16 Lat,Lon NOAA-20 Lat,Lon Distance(km) Time Diff (sec)
1 08/15/2020 18:32:39 0.05, -75.18 -0.41, -77.26 236.02 80
2 08/16/2020 18:16:34 0.05, -75.18 0.59, -72.72 279.90 80
3 08/18/2020 06:35:41 -0.06, -75.16 0.56, -77.99 322.68 80
4 08/19/2020 06:19:36 -0.06, -75.15 -0.44, -73.46 193.53 80
5 08/20/2020 18:38:51 0.06, -75.16 -0.76, -78.76 410.05 80
6 08/21/2020 18:22:45 0.06, -75.16 0.24, -74.22 106.70 80
7 08/23/2020 06:41:53 -0.06, -75.16 0.90, -79.50 494.59 80
8 08/24/2020 06:25:47 -0.06, -75.16 -0.10, -74.96 22.31 80
9 08/26/2020 18:26:18 0.07, -75.18 -0.04, -75.74 63.49 80
10 08/27/2020 18:10:13 0.07, -75.18 0.96, -71.20 453.73 80
